loading
DOY 173 | 2024-06-21T05:44:08Z

THOR ABLE DEB (YO), 115

Orbit data source: Space-Track

THOR ABLE DEB (YO), 115 is space debris in LEO originally from a launch on Fri, 01 Apr 1960 UTC launched from the Air Force Eastern Test Range (AFETR). Debris objects in space refer to the collection of defunct objects orbiting the Earth. Examples of debris include non-operational satellites, rocket bodies, and fragments generated from explosions, collisions, or faulty payload assembly.

Loading next visibility...
Loading greatness...
THOR ABLE DEB (YO) details
NORAD ID115
COSPAR ID
1960-002D
Orbit
LEO
Last TLE update2 days ago
Origin
Flag of USGSFC (US)
ManufacturerRCA/East Windsor
BusUnknown
MotorUnknown
Mass~1 kg wet, ~1 kg dry
Launch date (UTC)
1960-04-01 (64 years ago)
Launch vehicleUnknown
Launch site
Air Force Eastern Test Range (AFETR)
Object type
Payload
Rocket body
Debris
Radar Cross SectionSmall (<0.1 m²)
Predictive object data (real-time)
Latitude-48.30496°
Longitude13.61085°
Altitude595.444 km
Speed7.573 km/s
Apparent Right ascension01h 12m 06s
Apparent Declination-59° 21' 14"
Sunlit
Object is in full shadow
Predictive observer data (real-time)
Local Sidereal Time16:43:20
Azimuth138.696° SSE
Elevation-52.034°
Doppler factor1
Orbital elements
Apogee622.041 km
Perigee578.034 km
Semi-major axis6,978.175 km
Eccentricity0.0031532
Inclination48.1655°
RAAN63.1709°
Arg. of periapsis231.866°
True anomaly128.22547°
Mean anomaly127.9412°
Mean motion3.72332 °/min
BSTAR0.00027811
Period96.69 mins
Definitive object data (Epoch: 2024-06-19T02:37:53.149Z)
Latitude0.00001°
Longitude115.8787°
Altitude612.892 km
Speed7.547 km/s
True Right ascension04h 12m 41s
True Declination0° 00' 00"
Sunlit
Object was in daylight at TLE epoch
TLE from 2 days ago
0 THOR ABLE DEB (YO)
1 00115U 60002D   24171.10964293  .00002478  00000-0  27811-3 0  9997
2 00115  48.1655  63.1709 0031532 231.8660 127.9412 14.89666377409224
Epoch: 2024-06-19T02:37Z
No data available
Other satellites on launch #2 in the year 1960 (1960-04-01 UTC)

THOR ABLE DEB (YO) Visibility forecast

Observer location: 39.9160978°, -105.1181434, 0m alt.

THOR ABLE DEB (YO) is not visible in the next 10 days
Span
Click to sort rows by Start time (UTC) header in descending order
Start Az.
Max El. time (UTC)
Max El. Az.
Max El.
End time (UTC)
End Az.